Flag for Mauritania Weather past 2 weeks in Nouakchott, Mauritania

Now
68 °F

Clear.


Feels Like: 68 °F
Forecast: 70 / 94 °F
Wind: 8 mph from North

Location: Nouakchott Airport

Current Time: Apr 27, 2015 at 6:25:25 AM

Latest Report: Apr 27, 2015 at 6:00 AM


Visibility: 4 mi

Pressure: 29.80 "Hg

Humidity: 83%

Dew point: 63 °F

Location of NouakchottLocation

Historic Weather in Nouakchott — Graph

°F

Nouakchott temperature yesterday

Maximum temperature yesterday: 106 °F (at 1:30 PM)
Minimum temperature yesterday: 70 °F (at 9:30 PM)
Average temperature yesterday: 79 °F

Past Weeks' High & Low Weather Summary

 TemperatureHumidityPressure
High106 °F (Apr 25, 1:00 PM)88% (Apr 18, 5:00 AM)29.95 "Hg (Apr 18, 5:00 AM)
Low66 °F (Apr 18, 3:30 AM)7% (Apr 25, 12:30 PM)29.74 "Hg (Apr 16, 5:00 PM)
Average76 °F55%29.85 "Hg
* Reported Apr 12 5:00 AM — Apr 27 5:00 AM, Nouakchott, Weather by CustomWeather, © 2015

Note: Actual official high and low records may vary slightly from our data, if they occured in-between our weather recording intervals... More about our weather records

Advertising

Nouakchott weather history for previous 24 hours

 ConditionsComfort  
Time TempWeatherWind HumidityBarometerVisibility
5:00 AM
Mon, Apr 27
68 °FClear.8 mph83%29.80 "Hg4 mi
4:30 AM70 °FClear.7 mph78%29.80 "Hg4 mi
4:00 AM70 °FClear.7 mph78%29.80 "Hg4 mi
3:30 AM70 °FClear.7 mph78%29.80 "Hg4 mi
3:00 AM70 °FClear.9 mph78%29.80 "Hg4 mi
2:30 AM70 °FClear.9 mph78%29.80 "Hg4 mi
2:00 AM70 °FClear.9 mph78%29.83 "Hg4 mi
1:30 AM70 °FClear.8 mph83%29.83 "Hg4 mi
1:00 AM70 °FClear.7 mph78%29.83 "Hg4 mi
12:30 AM70 °FClear.7 mph83%29.86 "Hg4 mi
12:00 AM70 °FClear.10 mph83%29.86 "Hg4 mi
11:30 PM
Sun, Apr 26
70 °FClear.13 mph78%29.86 "Hg4 mi
11:00 PM70 °FClear.13 mph78%29.86 "Hg4 mi
10:30 PM70 °FClear.15 mph78%29.86 "Hg4 mi
10:00 PM70 °FClear.14 mph78%29.83 "Hg4 mi
9:30 PM70 °FClear.16 mph73%29.83 "Hg4 mi
9:00 PM72 °FClear.14 mph69%29.83 "Hg4 mi
8:30 PM72 °FClear.17 mph65%29.80 "Hg4 mi
8:00 PM73 °FClear.17 mph61%29.80 "Hg4 mi
7:30 PM73 °FClear.16 mph61%29.80 "Hg4 mi
7:00 PM73 °FClear.17 mph61%29.80 "Hg4 mi
6:30 PM75 °FClear.17 mph57%29.80 "Hg4 mi
6:00 PM79 °FClear.20 mph51%29.77 "Hg4 mi
5:30 PM81 °FSandstorm.17 mph48%29.77 "Hg3 mi
5:00 PM81 °FSandstorm.18 mph48%29.77 "Hg3 mi
4:30 PM82 °FClear.17 mph48%29.77 "Hg4 mi
4:00 PM82 °FClear.17 mph48%29.77 "Hg4 mi
3:30 PM84 °FClear.16 mph45%29.80 "Hg4 mi
3:00 PM88 °FClear.15 mph38%29.80 "Hg4 mi
2:30 PM91 °FClear.14 mph32%29.83 "Hg4 mi
2:00 PM95 °FClear.10 mph28%29.83 "Hg4 mi
1:30 PM106 °FClear.12 mph8%29.83 "Hg4 mi
1:00 PM104 °FClear.12 mph9%29.86 "Hg4 mi
12:30 PM102 °FClear.14 mph10%29.86 "Hg4 mi
12:00 PM99 °FClear.14 mph11%29.86 "Hg4 mi
11:30 AM97 °FClear.15 mph13%29.89 "Hg4 mi
11:00 AM93 °FClear.13 mph16%29.89 "Hg4 mi
10:30 AM90 °FClear.14 mph18%29.89 "Hg4 mi
10:00 AM86 °FClear.12 mph22%29.89 "Hg4 mi
9:30 AM82 °FClear.13 mph26%29.89 "Hg4 mi
9:00 AM79 °FClear.13 mph32%29.89 "Hg4 mi
8:30 AM77 °FClear.14 mph36%29.86 "Hg4 mi
8:00 AM73 °FClear.12 mph41%29.86 "Hg4 mi
7:30 AM72 °FClear.10 mph47%29.86 "Hg4 mi
7:00 AM72 °FClear.10 mph47%29.83 "Hg4 mi
6:30 AM72 °FClear.9 mph50%29.83 "Hg5 mi
6:00 AM72 °FClear.12 mph50%29.83 "Hg5 mi
Weather by CustomWeather, © 2015

See weather overviewHow to use our weather pages